Flag for Canada Weather past 2 weeks in Happy Valley-Goose Bay, Newfoundland and Labrador, Canada

Now
7 °F

Light snow. Ice fog.


Feels Like: -2 °F
Forecast: -2 / 11 °F
Wind: 5 mph from Northwest

Location: Goose

Current Time: Feb 1, 2015 at 11:08:26 AM

Latest Report: Feb 1, 2015 at 10:00 AM


Visibility: 1 mi

Pressure: 29.44 "Hg

Humidity: 72%

Dew point: 0 °F

Location of Happy Valley-Goose BayLocation

Historic Weather in Happy Valley-Goose Bay — Graph

°F

Happy Valley-Goose Bay temperature yesterday

Maximum temperature yesterday: 10 °F (at 1:00 PM)
Minimum temperature yesterday: -6 °F (at 12:00 AM)
Average temperature yesterday: 3 °F

Past Weeks' High & Low Weather Summary

 TemperatureHumidityPressure
High27 °F (Jan 20, 3:00 PM)86% (Jan 20, 9:00 AM)30.65 "Hg (Jan 20, 9:00 AM)
Low-22 °F (Jan 23, 1:00 AM)42% (Jan 27, 12:00 PM)28.63 "Hg (Jan 25, 1:00 PM)
Average-2 °F65%29.88 "Hg
* Reported Jan 17 9:00 AM — Feb 1 9:00 AM, Happy Valley-Goose Bay, Weather by CustomWeather, © 2014

Note: Actual official high and low records may vary slightly from our data, if they occured in-between our weather recording intervals... More about our weather records

Advertising

Happy Valley-Goose Bay weather history for previous 24 hours

 ConditionsComfort  
Time TempWeatherWind HumidityBarometerVisibility
9:00 AM
Feb 1
7 °FLight snow. Ice fog.9 mph72%29.47 "Hg1 mi
8:00 AM7 °FLight snow. Ice fog.10 mph72%29.48 "Hg1 mi
7:00 AM7 °FLight snow. Ice fog.9 mph72%29.50 "Hg1 mi
6:00 AM7 °FLight snow. Ice fog.7 mph78%29.53 "Hg1 mi
5:00 AM9 °FLight snow. Ice fog.8 mph78%29.56 "Hg1 mi
4:00 AM9 °FLight snow. Ice fog.8 mph78%29.58 "Hg1 mi
3:00 AM10 °FSnow. Ice fog.9 mph72%29.63 "Hg1 mi
2:51 AM10 °FSnow. Ice fog.9 mph72%29.64 "Hg1 mi
2:00 AM10 °FSnow. Ice fog.13 mph72%29.67 "Hg1 mi
1:00 AM10 °FLight snow. Ice fog.16 mph72%29.71 "Hg1 mi
12:00 AM9 °FSnow. Ice fog.12 mph78%29.77 "Hg1 mi
11:00 PM
Jan 31
9 °FHeavy snow. Ice fog.10 mph78%29.80 "Hg0 mi
10:52 PM9 °FHeavy snow. Ice fog.16 mph78%29.80 "Hg0 mi
10:00 PM9 °FSnow. Ice fog.16 mph78%29.84 "Hg1 mi
9:00 PM9 °FSnow. Ice fog.12 mph72%29.88 "Hg1 mi
8:00 PM9 °FSnow. Ice fog.12 mph72%29.93 "Hg1 mi
7:00 PM7 °FLight snow. Ice fog.5 mph72%29.96 "Hg1 mi
6:55 PM7 °FLight snow. Ice fog.6 mph72%29.95 "Hg1 mi
6:00 PM7 °FLight snow. Ice fog.6 mph72%29.98 "Hg1 mi
5:00 PM7 °FLight snow. Ice fog.7 mph72%30.00 "Hg1 mi
4:54 PM7 °FLight snow. Ice fog.7 mph72%30.00 "Hg1 mi
4:00 PM9 °FLight snow. Overcast.7 mph66%30.00 "Hg1 mi
3:00 PM9 °FLight snow. Overcast.3 mph72%30.01 "Hg1 mi
2:00 PM10 °FLight snow. More clouds than sun.5 mph61%30.01 "Hg3 mi
1:00 PM10 °FMostly cloudy.2 mph61%30.03 "Hg15 mi
12:00 PM9 °FMostly cloudy.No wind61%30.04 "Hg15 mi
11:00 AM3 °FLight snow. Cloudy.No wind66%30.04 "Hg15 mi
Weather by CustomWeather, © 2014

See weather overviewHow to use our weather pages